Location: *
(44.3925°N, 5.4708°E)
Time: 09:31:34
(UTC+00:00)

BREEZE-M DEB (TANK) - Pass Details

Date: 18 September 2019
Orbit: 277 x 16851 km, 49.4° (Epoch: 13 October)

Event Time Altitude Azimuth Distance (km) Brightness Sun altitude
Rises 18:50:35 0° 280° (W) 2,009 7.3 -12.6°
Reaches altitude 10° 18:52:13 10° 259° (W) 1,390 5.4 -12.9°
Maximum altitude 18:54:22 21° 205° (SSW) 1,261 4.3 -13.2°
Drops below altitude 10° 18:58:29 10° 157° (SSE) 2,833 5.6 -13.9°
Enters shadow 19:00:52 - 150° (SSE) 3,946 6.2 -14.4°
